GW5611 Weather Reports


time (UTC)temp
F
wind
direction
speed
knots
gust
knots
rain 1hr
in
rain 24hr
in
rain mn
in
humidity
%
barometer
mb
20260503224247 62 204 2.6 2.6 0.00 0.00 0.00 29 1015.1
20260503223744 62 221 0.0 0.9 0.00 0.00 0.00 29 1014.7
20260503223241 61 250 2.6 4.3 0.00 0.00 0.00 28 1015.1
20260503222737 61 199 2.6 2.6 0.00 0.00 0.00 28 1015.1
20260503222235 61 209 3.5 5.2 0.00 0.00 0.00 31 1015.1
20260503221734 61 194 3.5 4.3 0.00 0.00 0.00 27 1015.1
20260503221231 61 184 3.5 5.2 0.00 0.00 0.00 27 1015.1
20260503220727 61 212 2.6 4.3 0.00 0.00 0.00 27 1015.1
20260503220224 61 199 3.5 4.3 0.00 0.00 0.00 28 1015.1
20260503215721 62 219 1.7 1.7 0.00 0.00 0.00 27 1015.4
20260503215218 62 193 2.6 2.6 0.00 0.00 0.00 26 1015.1
20260503214716 61 228 2.6 4.3 0.00 0.00 0.00 28 1015.1
20260503214212 61 225 3.5 5.2 0.00 0.00 0.00 27 1015.4
20260503213711 60 247 1.7 1.7 0.00 0.00 0.00 26 1015.1
20260503213208 62 264 4.3 6.1 0.00 0.00 0.00 25 1015.1
20260503212705 62 272 5.2 6.1 0.00 0.00 0.00 26 1015.1
20260503212202 61 209 1.7 5.2 0.00 0.00 0.00 27 1015.1
20260503211700 62 229 4.3 6.1 0.00 0.00 0.00 27 1015.4
20260503211155 62 193 4.3 6.1 0.00 0.00 0.00 29 1015.1
20260503210652 62 201 3.5 5.2 0.00 0.00 0.00 26 1015.1
20260503210148 62 228 2.6 4.3 0.00 0.00 0.00 28 1015.1
20260503205644 62 256 2.6 5.2 0.00 0.00 0.00 27 1015.4
20260503205140 62 227 0.9 1.7 0.00 0.00 0.00 29 1015.4
20260503204637 61 276 3.5 4.3 0.00 0.00 0.00 28 1015.1
20260503204135 61 203 0.9 1.7 0.00 0.00 0.00 29 1015.4
20260503203631 62 265 2.6 4.3 0.00 0.00 0.00 31 1015.4
20260503203129 61 195 2.6 5.2 0.00 0.00 0.00 30 1015.4
20260503202626 62 232 1.7 2.6 0.00 0.00 0.00 31 1015.8
20260503202124 61 254 2.6 2.6 0.00 0.00 0.00 30 1015.8
20260503201622 60 214 2.6 5.2 0.00 0.00 0.00 28 1015.8
20260503201119 60 215 4.3 5.2 0.00 0.00 0.00 28 1015.8
20260503200615 60 233 3.5 5.2 0.00 0.00 0.00 27 1015.8
20260503200112 61 253 2.6 2.6 0.00 0.00 0.00 27 1016.1
20260503195609 60 231 2.6 5.2 0.00 0.00 0.00 30 1015.8
20260503195106 60 159 6.1 7.0 0.00 0.00 0.00 31 1016.1
20260503194604 59 200 1.7 2.6 0.00 0.00 0.00 31 1016.1
20260503194103 61 218 6.1 8.7 0.00 0.00 0.00 29 1016.1
20260503193600 60 206 2.6 2.6 0.00 0.00 0.00 29 1016.1
20260503193055 60 192 1.7 2.6 0.00 0.00 0.00 33 1016.1
20260503192552 59 221 1.7 2.6 0.00 0.00 0.00 31 1016.1
20260503192048 59 194 3.5 5.2 0.00 0.00 0.00 34 1016.1
20260503191545 59 237 3.5 4.3 0.00 0.00 0.00 31 1016.5
20260503191042 60 184 2.6 2.6 0.00 0.00 0.00 33 1016.1
20260503190539 58 210 0.9 1.7 0.00 0.00 0.00 31 1016.5
20260503190036 59 234 3.5 4.3 0.00 0.00 0.00 31 1016.5
20260503185533 59 192 2.6 4.3 0.00 0.00 0.00 32 1016.9
20260503185032 60 278 5.2 6.1 0.00 0.00 0.00 33 1016.5
20260503184528 58 226 1.7 1.7 0.00 0.00 0.00 35 1016.5
20260503184025 58 233 1.7 1.7 0.00 0.00 0.00 39 1016.9
20260503183522 57 220 0.9 0.9 0.00 0.00 0.00 34 1016.9
20260503183019 57 227 3.5 5.2 0.00 0.00 0.00 32 1017.2
20260503182518 57 197 6.1 7.8 0.00 0.00 0.00 35 1016.9
20260503182015 57 249 4.3 7.0 0.00 0.00 0.00 34 1017.2
20260503181512 57 221 2.6 2.6 0.00 0.00 0.00 39 1016.9
20260503181008 57 248 4.3 5.2 0.00 0.00 0.00 32 1017.2
20260503180506 58 211 1.7 1.7 0.00 0.00 0.00 36 1017.2
20260503180002 57 213 1.7 1.7 0.00 0.00 0.00 35 1017.2
20260503175500 57 220 5.2 6.1 0.00 0.00 0.00 35 1017.2
20260503174956 56 232 5.2 7.8 0.00 0.00 0.00 34 1017.6
20260503174454 55 259 2.6 2.6 0.00 0.00 0.00 37 1017.2
20260503173949 56 226 2.6 5.2 0.00 0.00 0.00 35 1017.2
20260503173445 56 218 2.6 2.6 0.00 0.00 0.00 37 1017.2
20260503172942 55 219 0.9 0.9 0.00 0.00 0.00 38 1017.2
20260503172440 55 173 3.5 4.3 0.00 0.00 0.00 40 1017.2
20260503171936 56 227 3.5 5.2 0.00 0.00 0.00 40 1017.2
20260503171433 55 280 3.5 4.3 0.00 0.00 0.00 36 1017.2
20260503170931 55 153 4.3 5.2 0.00 0.00 0.00 40 1017.2
20260503170426 54 223 0.9 1.7 0.00 0.00 0.00 39 1017.6
20260503150819 49 192 4.3 6.1 0.00 0.00 0.00 47 1019.0
20260503150315 50 207 3.5 4.3 0.00 0.00 0.00 43 1019.0
20260503140239 47 240 0.0 0.9 0.00 0.00 0.00 51 1019.0
20260503131209 45 222 1.7 1.7 0.00 0.00 0.00 52 1019.0
20260503130706 45 316 1.7 2.6 0.00 0.00 0.00 52 1018.3
20260503130204 44 286 2.6 2.6 0.00 0.00 0.00 52 1018.3
20260503120129 39 239 0.9 1.7 0.00 0.00 0.00 59 1018.6
20260503110556 37 200 0.9 0.9 0.00 0.00 0.00 63 1017.9
20260503090444 38 196 0.9 0.9 0.00 0.00 0.00 60 1016.5
20260503081410 40 218 1.7 2.6 0.00 0.00 0.00 54 1015.8
20260503080907 40 252 0.0 0.9 0.00 0.00 0.00 54 1015.4
20260503080404 40 229 2.6 4.3 0.00 0.00 0.00 55 1015.8
20260503072840 40 258 1.7 1.7 0.00 0.00 0.00 58 1015.1
20260503072337 40 214 0.0 0.0 0.00 0.00 0.00 57 1015.4
20260503071833 40 187 3.5 6.1 0.00 0.00 0.00 58 1015.1
20260503071331 41 225 0.0 0.9 0.00 0.00 0.00 57 1015.4
20260503070827 40 311 1.7 4.3 0.00 0.00 0.00 60 1015.1
20260503070325 38 241 1.7 1.7 0.00 0.00 0.00 63 1015.4
20260503060255 39 223 0.0 0.0 0.00 0.00 0.00 65 1015.1
20260503054743 37 235 0.9 0.9 0.00 0.00 0.00 69 1015.1
20260503054240 36 224 0.0 0.0 0.00 0.00 0.00 71 1015.4
20260503053738 35 227 0.0 0.0 0.00 0.00 0.00 73 1015.1
20260503053236 34 233 0.0 0.0 0.00 0.00 0.00 75 1015.1
20260503052732 35 233 0.0 0.9 0.00 0.00 0.00 75 1015.4
20260503052229 34 232 0.0 0.9 0.00 0.00 0.00 75 1015.1
20260503051724 34 215 0.0 0.9 0.00 0.00 0.00 76 1015.1
20260503051222 34 222 0.0 0.0 0.00 0.00 0.00 76 1015.1
20260503050718 34 224 0.0 0.0 0.00 0.00 0.00 76 1015.1
20260503050215 35 244 0.9 0.9 0.00 0.00 0.00 74 1015.1
20260503045712 35 222 0.0 0.0 0.00 0.00 0.00 75 1014.7
20260503045210 33 227 0.0 0.0 0.00 0.00 0.00 78 1014.7
20260503044706 33 228 0.0 0.9 0.00 0.00 0.00 78 1015.1
20260503044204 33 232 0.0 0.9 0.00 0.00 0.00 78 1015.1
20260503043700 34 225 0.0 0.0 0.00 0.00 0.00 77 1015.1
20260503043158 34 220 0.0 0.0 0.00 0.00 0.00 77 1015.1
20260503042653 34 227 0.0 0.0 0.00 0.00 0.00 76 1015.1
20260503042150 35 233 0.0 0.9 0.00 0.00 0.00 76 1015.1
20260503041646 35 226 0.0 0.0 0.00 0.00 0.00 74 1015.1
20260503041144 35 224 0.0 0.0 0.00 0.00 0.00 73 1015.1
20260503040641 36 218 0.9 0.9 0.00 0.00 0.00 74 1015.1
20260503040139 37 227 0.0 0.9 0.00 0.00 0.00 70 1015.1
20260503035635 38 227 0.0 0.0 0.00 0.00 0.00 68 1014.7
20260503035133 38 223 0.0 0.0 0.00 0.00 0.00 66 1015.1
20260503034630 39 215 0.0 0.9 0.00 0.00 0.00 65 1014.7
20260503034127 39 219 0.0 0.0 0.00 0.00 0.00 61 1015.1
20260503033624 40 234 0.0 0.9 0.00 0.00 0.00 65 1015.1
20260503033122 40 224 0.0 0.0 0.00 0.00 0.00 62 1014.7
20260503032620 41 223 0.0 0.0 0.00 0.00 0.00 57 1014.7
20260503032118 41 215 0.0 0.0 0.00 0.00 0.00 58 1014.7
20260503031616 41 221 0.0 0.0 0.00 0.00 0.00 57 1014.3
20260503031113 41 221 0.0 0.0 0.00 0.00 0.00 55 1015.1
20260503030609 42 222 0.0 0.0 0.00 0.00 0.00 56 1014.7
20260503030106 42 229 0.0 0.0 0.00 0.00 0.00 55 1014.7
20260503025603 43 232 0.0 0.0 0.00 0.00 0.00 52 1014.7
20260503025100 44 225 0.0 0.0 0.00 0.00 0.00 51 1014.7
20260503024556 44 215 0.9 0.9 0.00 0.00 0.00 51 1014.7
20260503024054 44 224 0.0 0.0 0.00 0.00 0.00 51 1015.1
20260503023550 44 220 0.9 0.9 0.00 0.00 0.00 50 1014.7
20260503023048 44 219 0.9 0.9 0.00 0.00 0.00 50 1014.7
20260503022544 44 255 0.9 1.7 0.00 0.00 0.00 50 1015.1
20260503022038 43 245 1.7 1.7 0.00 0.00 0.00 51 1014.7
20260503021536 43 228 0.0 0.0 0.00 0.00 0.00 53 1014.7
20260503021032 44 232 0.9 0.9 0.00 0.00 0.00 52 1014.7
20260503020530 44 227 0.9 0.9 0.00 0.00 0.00 52 1014.7
20260503020026 44 221 0.0 0.0 0.00 0.00 0.00 51 1015.1
20260503015523 44 223 0.0 0.0 0.00 0.00 0.00 49 1014.7
20260503015020 44 222 0.0 0.0 0.00 0.00 0.00 51 1014.7
20260503014516 45 224 0.0 0.0 0.00 0.00 0.00 49 1014.7
20260503014015 45 226 0.0 0.0 0.00 0.00 0.00 48 1014.3
20260503013511 45 230 0.0 0.9 0.00 0.00 0.00 47 1014.7
20260503013009 46 225 0.9 0.9 0.00 0.00 0.00 47 1014.7
20260503012507 46 223 0.9 1.7 0.00 0.00 0.00 46 1014.7
20260503012002 46 233 0.9 1.7 0.00 0.00 0.00 46 1014.7
20260503011459 46 227 0.9 0.9 0.00 0.00 0.00 45 1014.3
20260503010956 47 218 0.9 0.9 0.00 0.00 0.00 45 1014.3
20260503010453 47 214 0.9 1.7 0.00 0.00 0.00 44 1014.3
20260503005950 47 224 0.9 0.9 0.00 0.00 0.00 45 1014.3
20260503005447 48 259 1.7 1.7 0.00 0.00 0.00 44 1014.3
20260503004944 48 226 0.9 0.9 0.00 0.00 0.00 43 1014.0
20260503004441 48 213 0.9 0.9 0.00 0.00 0.00 41 1014.0
20260503003938 48 229 4.3 5.2 0.00 0.00 0.00 41 1014.0
20260503003435 48 225 0.9 1.7 0.00 0.00 0.00 43 1014.0
20260503002932 49 214 1.7 2.6 0.00 0.00 0.00 42 1014.0
20260503002429 49 283 3.5 4.3 0.00 0.00 0.00 41 1014.0
20260503001926 49 217 1.7 2.6 0.00 0.00 0.00 41 1014.0
20260503001422 49 209 3.5 5.2 0.00 0.00 0.00 42 1013.7
20260503000920 49 233 0.9 1.7 0.00 0.00 0.00 42 1013.7
20260503000417 49 258 3.5 5.2 0.00 0.00 0.00 41 1013.7
20260502235914 49 260 1.7 2.6 0.00 0.00 0.00 43 1014.0
20260502235411 49 223 1.7 1.7 0.00 0.00 0.00 43 1013.3
20260502234908 50 262 2.6 2.6 0.00 0.00 0.00 43 1013.3
20260502234404 50 237 1.7 1.7 0.00 0.00 0.00 43 1013.3
20260502233902 50 245 1.7 2.6 0.00 0.00 0.00 42 1013.3
20260502233357 50 228 1.7 1.7 0.00 0.00 0.00 43 1013.3
20260502232854 51 226 2.6 4.3 0.00 0.00 0.00 41 1012.9
20260502232351 51 295 6.1 6.1 0.00 0.00 0.00 40 1012.9
20260502231847 51 228 2.6 4.3 0.00 0.00 0.00 41 1012.9
20260502231345 51 228 0.9 1.7 0.00 0.00 0.00 41 1012.9
20260502230843 52 219 3.5 7.0 0.00 0.00 0.00 40 1012.9
20260502230341 52 293 2.6 2.6 0.00 0.00 0.00 42 1012.9
20260502225837 53 189 5.2 6.1 0.00 0.00 0.00 41 1012.9
20260502225334 54 230 1.7 2.6 0.00 0.00 0.00 39 1012.5
20260502224831 55 193 4.3 5.2 0.00 0.00 0.00 38 1012.5